Tracking 19280 objects as of 15-Nov-2018
HD Live streaming from Space Station
objects crossing your sky now

GALAXY 10R

Track GALAXY 10R now!
GALAXY 10R is classified as:


NORAD ID: 26056
Int'l Code: 2000-002A
Perigee: 35,957.5 km
Apogee: 35,987.7 km
Inclination: 7.9 °
Period: 1,445.2 minutes
Semi major axis: 42343 km
RCS: 16.229 m2 (large)
Launch date: January 25, 2000
Source: United States (US)
Launch site: FRENCH GUIANA (FRGUI)

Digital and voice communications; 24 C-band< 24 Ku-band; North America.
aabbcc
Your satellite tracking list
Your tracking list is empty




NASA's NSSDC Master Catalog

Two Line Element Set (TLE):
1 26056U 00002A   18318.42738763 +.00000080 +00000-0 +00000-0 0  9990
2 26056 007.9036 048.6925 0003568 187.7115 206.2544 00.99637143068719
Source of the keplerian elements: AFSPC